Weather in Clearwater

United States     27°57′56″N   82°48′00″W
temp.,
°C
wind,
m/s
gust,
m/s
humid.,
%
clouds,
%
prec.,
mm/h
press.,
hPa
HPBL,
m
26 may, thu
thu2623:00+28ssw1259100 0.6 1019542
02:00+26ese8107370 0.6 1018669
05:00+26se7976100 0.0 1017636
08:00+25se797799 0.0 1019731
11:00+28se676489 0.0 10191065
14:00+30ssw555399 0.0 1018921
17:00+30sw55565 0.0 1016693
20:00+28wsw566185 0.0 1016604
27 may, fri
fri2723:00+28ssw5667100 0.0 1017615
02:00+27ssw566718 0.4 1016678
05:00+27ssw56706 0.4 1015813
08:00+27s676987 0.5 10161021
11:00+29ssw67616 0.0 10161219
14:00+30sw76533 0.0 10151245
17:00+29sw76580 0.0 10141164
20:00+28wsw67670 0.1 1014919
28 may, sat
sat2823:00+27wsw56700 0.0 1014802
02:00+26wsw44700 0.1 1013677
05:00+26w23710 0.6 1013528
08:00+26wnw22670 1.1 1013532
11:00+28nw22520 0.0 10141130
14:00+29wnw434720 0.0 10141324
17:00+29wnw54460 0.0 1013808
20:00+28nw43480 0.0 1013658
29 may, sun
sun2923:00+27nw22510 0.0 1014542
02:00+27n11520 0.0 1014397
05:00+26ne22570 0.0 1013332
08:00+26ene23590 0.0 1015303
11:00+28se23470 0.0 1016745
14:00+31sw23430 0.0 1015995
17:00+30w64510 0.1 1013449
20:00+28nne555973 1.3 1016719
30 may, mon
mon3023:00+26se4560100 0.5 1016268
02:00+26ese4665100 0.5 1017437
05:00+25ese457398 0.0 1017397
08:00+25e457534 0.0 1018377
11:00+29ese455879 0.0 1018850
14:00+32e34499 0.0 10171139
17:00+31nnw665295 0.0 1015794
20:00+27se356598 1.3 1017488